When you browse on this site, cookies collect data to enhance your experience and personalize the content and advertising you see.
Visit our Privacy Policy to learn more. By continuing to use the site, you agree to this use of cookies and data.
  • In Deutschland
  • Länderverzeichnis
  • Für 7 Tage
  • Wassertemperatur
  • Satellitenkarten
  • Wetterkarte
  • Widgets
  • user-avatar
    Anmelden

    Stündliche Wetter Orscha

    Heute, 22 März, Freitag

    Zeit Temperatur Niederschläge Wind Luftdruck Luftfeuchtigkeit
    00:00 +2°C° 0.5 mm 5 m/S 748 mmHg 85%
    01:00 +3°C° 0.5 mm 5 m/S 747 mmHg 87%
    02:00 +3°C° 0 mm 5 m/S 746 mmHg 90%
    03:00 +3°C° 0.4 mm 6 m/S 746 mmHg 90%
    04:00 +4°C° 0.4 mm 6 m/S 745 mmHg 90%
    05:00 +5°C° 0.4 mm 7 m/S 745 mmHg 90%
    06:00 +5°C° 0.1 mm 7 m/S 745 mmHg 87%
    07:00 +5°C° 0.1 mm 8 m/S 745 mmHg 84%
    08:00 +5°C° 0 mm 9 m/S 745 mmHg 80%
    09:00 +5°C° 0 mm 10 m/S 745 mmHg 70%
    10:00 +3°C° 0 mm 10 m/S 746 mmHg 60%
    11:00 +3°C° 0 mm 11 m/S 746 mmHg 50%
    12:00 +3°C° 0 mm 11 m/S 747 mmHg 47%
    13:00 +3°C° 0 mm 11 m/S 747 mmHg 44%
    14:00 +5°C° 0 mm 10 m/S 747 mmHg 40%
    15:00 +5°C° 0 mm 10 m/S 747 mmHg 41%
    16:00 +3°C° 0 mm 9 m/S 748 mmHg 42%
    17:00 +3°C° 0 mm 9 m/S 748 mmHg 43%
    18:00 +2°C° 0 mm 8 m/S 748 mmHg 47%
    19:00 0°C° 0 mm 7 m/S 749 mmHg 51%
    20:00 -1°C° 0 mm 7 m/S 749 mmHg 54%
    21:00 -1°C° 0 mm 7 m/S 749 mmHg 58%
    22:00 -2°C° 0 mm 7 m/S 749 mmHg 61%
    23:00 -2°C° 0 mm 7 m/S 750 mmHg 64%

    Morgen, 23 März, Samstag

    Zeit Temperatur Niederschläge Wind Luftdruck Luftfeuchtigkeit
    00:00 -3°C° 0 mm 7 m/S 750 mmHg 67%
    01:00 -3°C° 0 mm 7 m/S 750 mmHg 69%
    02:00 -3°C° 0 mm 7 m/S 750 mmHg 72%
    03:00 -3°C° 0 mm 7 m/S 751 mmHg 73%
    04:00 -3°C° 0 mm 6 m/S 751 mmHg 75%
    05:00 -3°C° 0 mm 6 m/S 751 mmHg 76%
    06:00 -3°C° 0 mm 6 m/S 751 mmHg 75%
    07:00 -3°C° 0 mm 6 m/S 752 mmHg 74%
    08:00 -2°C° 0 mm 6 m/S 752 mmHg 73%
    09:00 -1°C° 0 mm 6 m/S 752 mmHg 70%
    10:00 +1°C° 0 mm 5 m/S 752 mmHg 67%
    11:00 +3°C° 0 mm 4 m/S 752 mmHg 64%
    12:00 +3°C° 0 mm 3 m/S 752 mmHg 61%
    13:00 +4°C° 0 mm 3 m/S 752 mmHg 58%
    14:00 +6°C° 0 mm 2 m/S 752 mmHg 55%
    15:00 +6°C° 0 mm 2 m/S 751 mmHg 57%
    16:00 +7°C° 0 mm 1 m/S 751 mmHg 58%
    17:00 +7°C° 0 mm 1 m/S 751 mmHg 59%
    18:00 +6°C° 0 mm 1 m/S 751 mmHg 62%
    19:00 +5°C° 0 mm 1 m/S 751 mmHg 66%
    20:00 +3°C° 0 mm 2 m/S 750 mmHg 69%
    21:00 +2°C° 0 mm 2 m/S 750 mmHg 71%
    22:00 +1°C° 0 mm 3 m/S 749 mmHg 73%
    23:00 0°C° 0 mm 3 m/S 749 mmHg 75%

    übermorgen, 24 März, Sonntag

    Zeit Temperatur Niederschläge Wind Luftdruck Luftfeuchtigkeit
    00:00 0°C° 0.1 mm 4 m/S 748 mmHg 72%
    01:00 0°C° 0.1 mm 4 m/S 747 mmHg 69%
    02:00 +1°C° 0.1 mm 4 m/S 747 mmHg 67%
    03:00 0°C° 0.8 mm 4 m/S 746 mmHg 72%
    04:00 0°C° 0.8 mm 4 m/S 746 mmHg 77%
    05:00 0°C° 0.8 mm 4 m/S 746 mmHg 83%
    06:00 +1°C° 0 mm 4 m/S 746 mmHg 83%
    07:00 +1°C° 0 mm 5 m/S 746 mmHg 83%
    08:00 +2°C° 0 mm 5 m/S 746 mmHg 83%
    09:00 +2°C° 0 mm 5 m/S 746 mmHg 75%
    10:00 +3°C° 0 mm 6 m/S 746 mmHg 67%
    11:00 +4°C° 0 mm 6 m/S 746 mmHg 59%
    12:00 +5°C° 0 mm 6 m/S 746 mmHg 55%
    13:00 +5°C° 0 mm 6 m/S 746 mmHg 51%
    14:00 +5°C° 0 mm 6 m/S 746 mmHg 48%
    15:00 +6°C° 0 mm 5 m/S 745 mmHg 50%
    16:00 +5°C° 0 mm 5 m/S 745 mmHg 52%
    17:00 +5°C° 0 mm 4 m/S 745 mmHg 54%
    18:00 +4°C° 0 mm 3 m/S 745 mmHg 57%
    19:00 +3°C° 0 mm 3 m/S 745 mmHg 61%
    20:00 +2°C° 0 mm 3 m/S 745 mmHg 64%
    21:00 +3°C° 0 mm 2 m/S 745 mmHg 66%
    22:00 +2°C° 0 mm 2 m/S 745 mmHg 67%
    23:00 +2°C° 0 mm 2 m/S 744 mmHg 69%

    25 März, Montag

    Zeit Temperatur Niederschläge Wind Luftdruck Luftfeuchtigkeit
    00:00 +2°C° 0 mm 2 m/S 744 mmHg 71%
    01:00 +1°C° 0 mm 2 m/S 744 mmHg 72%
    02:00 +1°C° 0 mm 2 m/S 744 mmHg 74%
    03:00 -1°C° 0 mm 2 m/S 744 mmHg 75%
    04:00 -1°C° 0 mm 2 m/S 743 mmHg 75%
    05:00 -1°C° 0 mm 2 m/S 743 mmHg 76%
    06:00 +1°C° 0 mm 2 m/S 743 mmHg 74%
    07:00 +1°C° 0 mm 2 m/S 743 mmHg 71%
    08:00 +2°C° 0 mm 2 m/S 742 mmHg 68%
    09:00 +3°C° 0 mm 2 m/S 742 mmHg 64%
    10:00 +4°C° 0 mm 2 m/S 742 mmHg 60%
    11:00 +4°C° 0 mm 3 m/S 742 mmHg 56%
    12:00 +4°C° 0.2 mm 3 m/S 741 mmHg 53%
    13:00 +5°C° 0.2 mm 3 m/S 741 mmHg 50%
    14:00 +5°C° 0.2 mm 3 m/S 741 mmHg 46%
    15:00 +5°C° 0.1 mm 3 m/S 741 mmHg 50%
    16:00 +5°C° 0.1 mm 2 m/S 741 mmHg 55%
    17:00 +5°C° 0.1 mm 2 m/S 740 mmHg 59%
    18:00 +4°C° 0.2 mm 2 m/S 740 mmHg 66%
    19:00 +3°C° 0.2 mm 2 m/S 741 mmHg 73%
    20:00 +2°C° 0.2 mm 2 m/S 741 mmHg 80%
    21:00 +2°C° 0.1 mm 2 m/S 741 mmHg 82%
    22:00 +1°C° 0.1 mm 2 m/S 741 mmHg 84%
    23:00 +1°C° 0.1 mm 2 m/S 741 mmHg 86%

    26 März, Dienstag

    Zeit Temperatur Niederschläge Wind Luftdruck Luftfeuchtigkeit
    00:00 +1°C° 0 mm 2 m/S 741 mmHg 86%
    01:00 -1°C° 0 mm 2 m/S 741 mmHg 87%
    02:00 -1°C° 0 mm 2 m/S 741 mmHg 88%
    03:00 -1°C° 0 mm 2 m/S 741 mmHg 88%
    04:00 -1°C° 0 mm 2 m/S 742 mmHg 89%
    05:00 -2°C° 0 mm 2 m/S 742 mmHg 89%
    06:00 -1°C° 0 mm 2 m/S 742 mmHg 87%
    07:00 0°C° 0 mm 3 m/S 742 mmHg 84%
    08:00 +1°C° 0 mm 3 m/S 742 mmHg 81%
    09:00 0°C° 0.2 mm 4 m/S 743 mmHg 81%
    10:00 +1°C° 0.2 mm 5 m/S 743 mmHg 81%
    11:00 +1°C° 0.2 mm 5 m/S 743 mmHg 81%
    12:00 +1°C° 0.1 mm 6 m/S 743 mmHg 75%
    13:00 +1°C° 0.1 mm 6 m/S 743 mmHg 70%
    14:00 +1°C° 0.1 mm 6 m/S 743 mmHg 64%
    15:00 +1°C° 0 mm 5 m/S 743 mmHg 61%
    16:00 +1°C° 0 mm 5 m/S 743 mmHg 58%
    17:00 +1°C° 0 mm 4 m/S 743 mmHg 55%
    18:00 0°C° 0 mm 5 m/S 743 mmHg 60%
    19:00 -1°C° 0 mm 5 m/S 743 mmHg 65%
    20:00 -2°C° 0 mm 5 m/S 744 mmHg 70%
    21:00 -2°C° 0.3 mm 5 m/S 743 mmHg 71%
    22:00 -2°C° 0.3 mm 5 m/S 743 mmHg 72%
    23:00 -4°C° 0.3 mm 5 m/S 743 mmHg 74%

    27 März, Mittwoch

    Zeit Temperatur Niederschläge Wind Luftdruck Luftfeuchtigkeit
    00:00 -4°C° 0 mm 5 m/S 744 mmHg 75%
    01:00 -5°C° 0 mm 5 m/S 744 mmHg 76%
    02:00 -6°C° 0 mm 5 m/S 745 mmHg 76%
    03:00 -6°C° 0 mm 5 m/S 745 mmHg 78%
    04:00 -6°C° 0 mm 5 m/S 746 mmHg 79%
    05:00 -6°C° 0 mm 5 m/S 746 mmHg 80%
    06:00 -6°C° 0 mm 5 m/S 747 mmHg 78%
    07:00 -5°C° 0 mm 5 m/S 748 mmHg 77%
    08:00 -4°C° 0 mm 5 m/S 748 mmHg 75%
    09:00 -2°C° 0 mm 4 m/S 749 mmHg 71%
    10:00 -1°C° 0 mm 4 m/S 749 mmHg 68%
    11:00 0°C° 0 mm 4 m/S 749 mmHg 64%
    12:00 0°C° 0 mm 4 m/S 750 mmHg 62%
    13:00 +1°C° 0 mm 4 m/S 750 mmHg 59%
    14:00 +1°C° 0 mm 4 m/S 750 mmHg 56%
    15:00 +1°C° 0 mm 4 m/S 750 mmHg 57%
    16:00 +1°C° 0 mm 4 m/S 750 mmHg 57%
    17:00 +2°C° 0 mm 3 m/S 751 mmHg 58%
    18:00 +1°C° 0 mm 3 m/S 751 mmHg 61%
    19:00 -1°C° 0 mm 3 m/S 752 mmHg 64%
    20:00 -2°C° 0 mm 3 m/S 752 mmHg 67%
    21:00 -2°C° 0 mm 3 m/S 752 mmHg 67%
    22:00 -2°C° 0 mm 3 m/S 753 mmHg 67%
    23:00 -2°C° 0 mm 2 m/S 753 mmHg 67%
    Mehr zeigen